SCP
0 0 0 0 0 0 0 0 -0 -0 0 0 0 0 0 0 0 0 0 0 -0 -0 0 0 0 0 0 0 0 0 0 0 -0 0 0 0 0 0
0 0 0 0 0 0 0 -0 -0 -0 0 0 0 0 0 0 0 0 0 0 -0 -0 0 0 0 0 0 0 0 0 0 0 0 0 0 0 0 0
0 0 0 0 0 0 0 -0 0 -0 0 0 0 0 0 0 0 0 0 0 0 -0 0 0 0 0 0 -0 0 0 0 0 0 0 0 0 0 0
0 0 0 0 0 0 0 -0 -0 -0 -0 -0 0 0 0 0 0 0 0 -0 0 0 0 0 0 0 0 0 0 0 0 0 0 0 0 0 0 0
0 0 0 0 0 0 -0 -0 0 -0 -0 0 0 0 0 0 0 0 -0 -0 0 0 0 0 0 0 0 0 0 0 0 0 0 0 0 0 0 0
0 0 0 0 0 -0 -0 -0 -0 -0 -0 0 0 0 0 0 0 0 0 0 0 0 0 0 0 0 0 0 0 0 0 0 0 0 0 0 0 0
0 0 0 0 -0 -0 0 -0 -0 -0 -0 0 0 0 0 0 0 0 0 0 0 0 0 0 0 0 0 0 0 0 0 0 0 0 0 0 0 0
0 0 0 0 0 -0 0 -0 -0 -0 -0 0 0 0 0 0 0 0 0 0 0 0 0 0 0 0 0 0 0 0 0 0 0 0 0 0 0 0
0 0 0 0 0 0 -0 -0 -0 -0 -0 -0 -0 0 0 0 0 0 0 0 0 0 0 0 0 0 0 0 0 0 0 0 0 0 0 0 0 0
0 0 0 0 0 -0 0 0 0 -0 -0 -0 -0 0 0 0 0 0 0 0 0 0 0 0 0 0 0 0 0 0 0 0 0 0 0 0 0 0
0 0 0 0 0 -0 -0 0 0 0 -0 -0 -0 0 0 0 0 0 0 0 0 0 0 0 0 0 0 0 0 0 0 0 0 0 0 0 0 0
0 0 0 0 0 0 -0 -0 0 0 0 -0 -0 0 0 0 0 0 0 0 0 0 0 0 0 0 0 0 0 0 0 0 0 0 0 0 0 0
0 0 0 0 0 0 0 -0 0 0 0 0 -0 0 0 0 0 0 0 -0 0 0 0 0 0 0 0 0 0 0 0 0 0 0 0 0 0 0
0 0 0 0 0 0 0 -0 -0 0 -0 -0 0 0 0 0 0 0 0 -0 0 0 0 0 0 0 0 0 0 0 0 0 0 0 0 0 0 0
0 0 -0 -0 0 -0 -0 0 0 -0 -0 0 0 0 0 0 0 0 -0 0 0 0 0 0 0 0 0 0 0 0 0 0 0 0 0 0 0 0
0 0 0 -0 -0 -0 -0 0 0 -0 0 0 0 0 0 0 0 0 0 0 0 0 0 0 0 0 0 0 0 0 0 0 0 0 0 0 0 0
0 0 0 0 0 0 -0 0 0 0 0 0 0 0 0 0 0 0 0 0 0 0 0 0 0 0 0 0 0 0 0 0 0 0 0 0 0 0
0 0 0 0 0 0 0 0 0 0 0 0 0 0 0 0 0 0 0 0 0 0 0 0 0 0 0 0 0 0 0 0 0 0 0 0 0 0
0 0 0 0 0 0 0 0 0 0 0 0 0 0 0 0 0 0 0 0 0 0 0 0 0 0 0 0 0 -0 0 0 0 0 0 0 0 0
0 0 0 0 0 0 0 0 0 0 0 0 0 0 0 0 0 0 0 0 0 0 0 0 0 0 0 0 0 0 0 0 0 0 0 0 0 0
0 0 0 0 0 0 0 0 0 0 0 0 0 0 0 0 0 0 0 0 0 0 0 0 0 0 0 0 0 0 0 0 0 0 0 0 0 0
0 0 0 0 0 0 0 0 0 0 0 0 0 0 0 0 0 0 0 0 0 0 0 0 0 0 0 0 0 0 0 0 0 0 0 0 0 0
0 0 0 0 0 0 0 0 0 0 0 0 0 0 0 0 0 0 0 0 0 0 0 0 0 0 0 0 0 0 0 0 0 0 0 0 0 0
Wind_Speed_500mb
59 62 62 59 60 67 70 73 74 80 79 79 86 81 77 85 64 58 59 64 56 47 59 55 48 59 63 76 83 93 90 88 103 111 121 125 123 129
58 61 66 67 66 68 71 69 66 71 81 80 82 81 83 74 60 56 61 65 56 59 64 23 43 55 61 74 86 88 85 97 98 132 131 144 135 133
58 60 60 57 57 57 58 60 59 58 73 84 79 77 71 72 62 51 57 58 61 63 44 27 37 68 65 80 90 90 87 87 84 114 148 119 130 126
58 56 57 55 57 57 58 57 58 58 65 80 72 74 73 71 65 64 58 58 66 44 48 32 37 53 66 64 86 93 88 99 105 138 132 123 118 132
57 56 58 58 62 61 59 58 57 57 60 71 78 74 76 70 69 56 62 63 60 33 41 23 31 33 62 64 82 86 94 107 103 123 123 135 127 130
61 61 60 58 58 57 62 64 65 66 64 65 70 73 69 69 63 71 70 69 69 29 26 14 9 34 56 52 76 86 103 104 117 121 149 147 145 139
66 64 61 55 53 52 54 58 58 61 65 61 64 65 69 69 64 69 70 78 73 38 37 15 17 25 55 53 59 82 87 112 123 128 181 152 147 137
65 58 52 50 47 43 46 47 47 53 59 57 60 60 65 66 65 59 63 78 66 54 49 22 14 13 37 53 53 62 72 104 158 163 157 157 148 136
56 55 54 50 45 46 44 41 41 41 43 48 55 57 63 56 59 64 69 72 77 51 48 34 25 36 42 30 60 63 79 151 163 166 162 155 127 135
53 53 52 51 46 44 50 50 47 45 40 36 42 51 51 54 52 56 65 66 63 39 43 30 43 56 46 16 56 65 112 105 137 139 133 129 134 120
55 51 51 52 51 44 46 52 51 44 41 31 34 38 38 38 37 42 49 61 66 48 47 31 49 45 49 46 43 112 131 140 137 137 130 139 122 118
55 59 57 53 47 43 45 49 51 47 44 39 44 43 31 30 30 27 36 46 55 40 51 46 44 23 31 61 72 100 146 146 135 128 128 113 108 122
70 70 62 56 49 45 42 44 48 45 42 41 40 39 36 28 26 27 32 35 46 47 44 51 39 29 38 47 74 87 109 139 143 131 113 117 120 115
64 68 65 55 53 52 47 46 40 35 36 41 41 38 39 29 23 25 29 30 33 37 40 39 35 20 49 52 64 76 101 99 108 123 111 95 90 98
61 59 59 58 53 49 43 40 39 36 34 36 38 31 34 25 22 24 25 23 30 27 34 30 24 18 31 68 71 74 103 105 114 116 125 124 125 119
66 67 65 55 47 47 46 41 37 36 32 32 32 30 30 20 19 22 24 15 22 22 21 21 11 9 41 52 78 81 88 94 109 112 107 116 117 122
59 64 60 46 41 36 31 31 34 29 30 28 29 27 24 16 19 18 18 9 14 17 16 17 14 16 42 53 55 64 92 86 87 98 113 114 106 114
54 53 51 48 41 36 34 28 30 31 32 28 25 28 25 15 19 19 15 7 4 8 12 19 18 34 47 52 59 73 86 94 94 94 98 101 89 86
51 53 52 48 46 38 36 33 24 31 20 22 25 29 24 21 18 19 14 10 8 2 6 17 29 42 59 68 58 72 84 91 99 107 106 107 101 83
53 53 52 48 45 41 34 33 34 20 26 23 26 27 27 24 20 17 15 12 15 11 11 14 21 40 62 78 78 66 87 92 97 99 96 91 86 78
57 54 50 48 44 40 32 31 28 25 24 25 25 24 25 25 20 19 17 16 22 20 18 20 21 33 51 70 74 62 63 75 81 83 85 83 81 77
57 53 50 47 43 38 30 26 24 31 15 23 28 27 29 31 26 23 20 21 22 22 26 24 23 27 45 62 72 68 59 61 74 80 78 70 82 68
55 52 49 46 41 37 28 23 23 27 31 23 29 31 33 32 29 24 24 24 23 24 30 32 31 30 41 56 65 70 68 66 68 66 55 54 30 57
Wind_Direction_500mb
304 302 302 302 298 298 298 294 302 309 309 307 311 317 316 317 309 305 303 298 293 298 290 289 244 234 229 230 225 222 221 216 215 212 213 210 198 196
304 302 300 302 300 299 300 301 297 297 295 305 311 316 319 319 318 316 309 303 293 302 305 276 246 239 229 233 230 227 225 221 226 216 209 201 193 198
312 312 310 309 310 308 307 307 303 300 297 304 310 321 327 331 329 329 326 318 306 316 326 280 253 240 231 238 228 223 220 216 206 203 189 195 188 193
321 319 316 317 312 311 310 310 308 303 305 303 313 325 330 335 337 334 335 330 316 325 327 283 257 256 232 228 215 215 213 210 190 189 186 187 186 194
323 321 316 314 309 309 309 310 310 307 304 306 310 320 325 334 335 342 328 332 328 330 324 285 272 286 236 217 212 211 211 207 204 195 201 187 185 195
322 320 317 315 312 310 306 305 305 307 308 307 312 319 325 328 333 339 335 331 340 338 349 286 290 303 225 214 207 212 209 210 209 202 190 193 186 190
320 317 314 311 301 300 299 299 301 303 308 312 313 317 317 323 338 335 333 337 344 345 358 351 279 283 197 203 215 209 219 209 211 202 185 187 188 185
318 320 319 317 313 304 297 296 296 299 303 307 312 315 313 315 327 333 330 338 334 344 352 17 349 310 136 188 207 209 218 211 194 189 183 182 183 182
324 323 322 324 318 313 312 311 306 302 297 296 301 306 308 310 318 328 328 332 335 345 348 15 12 30 63 172 199 184 181 172 178 181 180 177 177 176
324 324 323 325 326 317 310 311 312 313 317 305 301 307 311 312 304 314 319 331 339 359 1 4 25 31 46 94 178 186 184 168 165 166 169 175 175 174
322 321 321 323 323 315 305 306 309 306 316 314 306 309 305 311 311 311 328 337 341 343 6 359 1 29 23 64 131 171 177 171 168 170 172 170 169 170
326 324 321 315 308 307 300 299 299 303 311 315 312 317 322 314 323 319 323 339 349 348 352 1 12 20 18 49 104 155 168 170 168 169 170 171 177 169
319 320 318 314 306 301 298 294 293 299 296 303 311 319 321 324 324 315 310 328 348 348 347 358 1 65 77 54 82 119 139 158 163 165 166 169 161 167
315 313 314 315 304 297 292 293 300 295 285 288 302 307 318 330 333 326 311 313 349 345 346 355 359 58 97 89 84 110 132 146 152 153 157 168 173 178
317 315 308 304 299 292 286 287 287 279 281 277 290 299 320 324 327 326 314 313 350 349 358 360 3 106 104 113 108 102 129 127 149 156 158 166 168 175
327 321 317 311 302 288 282 278 279 275 272 274 283 298 297 312 317 325 325 319 355 6 19 19 16 80 126 124 122 120 123 122 143 153 159 159 164 167
322 322 328 323 319 314 298 286 275 271 261 264 270 280 294 296 317 317 328 327 358 13 61 57 64 124 135 130 120 125 133 136 144 150 160 154 154 162
323 332 334 331 316 309 300 310 276 269 258 257 262 271 278 282 292 303 307 280 305 18 103 102 111 136 132 125 125 131 135 139 142 148 152 148 131 136
340 341 335 333 327 305 293 287 308 263 276 242 249 265 259 259 259 276 268 252 215 1 107 131 147 153 135 119 127 135 137 140 141 138 137 137 136 137
346 341 337 332 328 317 292 282 268 282 241 247 247 260 265 240 242 237 237 221 205 182 145 142 160 154 147 137 129 132 139 139 143 139 136 134 132 137
345 341 339 335 327 319 299 280 273 253 241 239 246 249 234 219 232 228 214 215 205 188 167 152 162 170 152 145 134 135 138 142 144 144 142 140 138 137
345 341 338 336 329 321 302 282 269 225 228 234 231 236 228 216 220 224 215 195 196 187 182 164 160 166 166 161 145 143 142 142 147 148 149 152 150 152
346 343 340 337 332 322 303 280 265 243 220 226 227 229 203 208 205 217 205 205 199 187 184 169 163 166 173 170 160 150 151 153 154 148 138 137 123 149
Wind_Speed_850mb
59 62 62 59 60 67 70 73 74 80 79 79 86 81 77 85 64 58 59 64 56 47 59 55 48 59 63 76 83 93 90 88 103 111 121 125 123 129
58 61 66 67 66 68 71 69 66 71 81 80 82 81 83 74 60 56 61 65 56 59 64 23 43 55 61 74 86 88 85 97 98 132 131 144 135 133
58 60 60 57 57 57 58 60 59 58 73 84 79 77 71 72 62 51 57 58 61 63 44 27 37 68 65 80 90 90 87 87 84 114 148 119 130 126
58 56 57 55 57 57 58 57 58 58 65 80 72 74 73 71 65 64 58 58 66 44 48 32 37 53 66 64 86 93 88 99 105 138 132 123 118 132
57 56 58 58 62 61 59 58 57 57 60 71 78 74 76 70 69 56 62 63 60 33 41 23 31 33 62 64 82 86 94 107 103 123 123 135 127 130
61 61 60 58 58 57 62 64 65 66 64 65 70 73 69 69 63 71 70 69 69 29 26 14 9 34 56 52 76 86 103 104 117 121 149 147 145 139
66 64 61 55 53 52 54 58 58 61 65 61 64 65 69 69 64 69 70 78 73 38 37 15 17 25 55 53 59 82 87 112 123 128 181 152 147 137
65 58 52 50 47 43 46 47 47 53 59 57 60 60 65 66 65 59 63 78 66 54 49 22 14 13 37 53 53 62 72 104 158 163 157 157 148 136
56 55 54 50 45 46 44 41 41 41 43 48 55 57 63 56 59 64 69 72 77 51 48 34 25 36 42 30 60 63 79 151 163 166 162 155 127 135
53 53 52 51 46 44 50 50 47 45 40 36 42 51 51 54 52 56 65 66 63 39 43 30 43 56 46 16 56 65 112 105 137 139 133 129 134 120
55 51 51 52 51 44 46 52 51 44 41 31 34 38 38 38 37 42 49 61 66 48 47 31 49 45 49 46 43 112 131 140 137 137 130 139 122 118
55 59 57 53 47 43 45 49 51 47 44 39 44 43 31 30 30 27 36 46 55 40 51 46 44 23 31 61 72 100 146 146 135 128 128 113 108 122
70 70 62 56 49 45 42 44 48 45 42 41 40 39 36 28 26 27 32 35 46 47 44 51 39 29 38 47 74 87 109 139 143 131 113 117 120 115
64 68 65 55 53 52 47 46 40 35 36 41 41 38 39 29 23 25 29 30 33 37 40 39 35 20 49 52 64 76 101 99 108 123 111 95 90 98
61 59 59 58 53 49 43 40 39 36 34 36 38 31 34 25 22 24 25 23 30 27 34 30 24 18 31 68 71 74 103 105 114 116 125 124 125 119
66 67 65 55 47 47 46 41 37 36 32 32 32 30 30 20 19 22 24 15 22 22 21 21 11 9 41 52 78 81 88 94 109 112 107 116 117 122
59 64 60 46 41 36 31 31 34 29 30 28 29 27 24 16 19 18 18 9 14 17 16 17 14 16 42 53 55 64 92 86 87 98 113 114 106 114
54 53 51 48 41 36 34 28 30 31 32 28 25 28 25 15 19 19 15 7 4 8 12 19 18 34 47 52 59 73 86 94 94 94 98 101 89 86
51 53 52 48 46 38 36 33 24 31 20 22 25 29 24 21 18 19 14 10 8 2 6 17 29 42 59 68 58 72 84 91 99 107 106 107 101 83
53 53 52 48 45 41 34 33 34 20 26 23 26 27 27 24 20 17 15 12 15 11 11 14 21 40 62 78 78 66 87 92 97 99 96 91 86 78
57 54 50 48 44 40 32 31 28 25 24 25 25 24 25 25 20 19 17 16 22 20 18 20 21 33 51 70 74 62 63 75 81 83 85 83 81 77
57 53 50 47 43 38 30 26 24 31 15 23 28 27 29 31 26 23 20 21 22 22 26 24 23 27 45 62 72 68 59 61 74 80 78 70 82 68
55 52 49 46 41 37 28 23 23 27 31 23 29 31 33 32 29 24 24 24 23 24 30 32 31 30 41 56 65 70 68 66 68 66 55 54 30 57
Wind_Direction_850mb
304 302 302 302 298 298 298 294 302 309 309 307 311 317 316 317 309 305 303 298 293 298 290 289 244 234 229 230 225 222 221 216 215 212 213 210 198 196
304 302 300 302 300 299 300 301 297 297 295 305 311 316 319 319 318 316 309 303 293 302 305 276 246 239 229 233 230 227 225 221 226 216 209 201 193 198
312 312 310 309 310 308 307 307 303 300 297 304 310 321 327 331 329 329 326 318 306 316 326 280 253 240 231 238 228 223 220 216 206 203 189 195 188 193
321 319 316 317 312 311 310 310 308 303 305 303 313 325 330 335 337 334 335 330 316 325 327 283 257 256 232 228 215 215 213 210 190 189 186 187 186 194
323 321 316 314 309 309 309 310 310 307 304 306 310 320 325 334 335 342 328 332 328 330 324 285 272 286 236 217 212 211 211 207 204 195 201 187 185 195
322 320 317 315 312 310 306 305 305 307 308 307 312 319 325 328 333 339 335 331 340 338 349 286 290 303 225 214 207 212 209 210 209 202 190 193 186 190
320 317 314 311 301 300 299 299 301 303 308 312 313 317 317 323 338 335 333 337 344 345 358 351 279 283 197 203 215 209 219 209 211 202 185 187 188 185
318 320 319 317 313 304 297 296 296 299 303 307 312 315 313 315 327 333 330 338 334 344 352 17 349 310 136 188 207 209 218 211 194 189 183 182 183 182
324 323 322 324 318 313 312 311 306 302 297 296 301 306 308 310 318 328 328 332 335 345 348 15 12 30 63 172 199 184 181 172 178 181 180 177 177 176
324 324 323 325 326 317 310 311 312 313 317 305 301 307 311 312 304 314 319 331 339 359 1 4 25 31 46 94 178 186 184 168 165 166 169 175 175 174
322 321 321 323 323 315 305 306 309 306 316 314 306 309 305 311 311 311 328 337 341 343 6 359 1 29 23 64 131 171 177 171 168 170 172 170 169 170
326 324 321 315 308 307 300 299 299 303 311 315 312 317 322 314 323 319 323 339 349 348 352 1 12 20 18 49 104 155 168 170 168 169 170 171 177 169
319 320 318 314 306 301 298 294 293 299 296 303 311 319 321 324 324 315 310 328 348 348 347 358 1 65 77 54 82 119 139 158 163 165 166 169 161 167
315 313 314 315 304 297 292 293 300 295 285 288 302 307 318 330 333 326 311 313 349 345 346 355 359 58 97 89 84 110 132 146 152 153 157 168 173 178
317 315 308 304 299 292 286 287 287 279 281 277 290 299 320 324 327 326 314 313 350 349 358 360 3 106 104 113 108 102 129 127 149 156 158 166 168 175
327 321 317 311 302 288 282 278 279 275 272 274 283 298 297 312 317 325 325 319 355 6 19 19 16 80 126 124 122 120 123 122 143 153 159 159 164 167
322 322 328 323 319 314 298 286 275 271 261 264 270 280 294 296 317 317 328 327 358 13 61 57 64 124 135 130 120 125 133 136 144 150 160 154 154 162
323 332 334 331 316 309 300 310 276 269 258 257 262 271 278 282 292 303 307 280 305 18 103 102 111 136 132 125 125 131 135 139 142 148 152 148 131 136
340 341 335 333 327 305 293 287 308 263 276 242 249 265 259 259 259 276 268 252 215 1 107 131 147 153 135 119 127 135 137 140 141 138 137 137 136 137
346 341 337 332 328 317 292 282 268 282 241 247 247 260 265 240 242 237 237 221 205 182 145 142 160 154 147 137 129 132 139 139 143 139 136 134 132 137
345 341 339 335 327 319 299 280 273 253 241 239 246 249 234 219 232 228 214 215 205 188 167 152 162 170 152 145 134 135 138 142 144 144 142 140 138 137
345 341 338 336 329 321 302 282 269 225 228 234 231 236 228 216 220 224 215 195 196 187 182 164 160 166 166 161 145 143 142 142 147 148 149 152 150 152
346 343 340 337 332 322 303 280 265 243 220 226 227 229 203 208 205 217 205 205 199 187 184 169 163 166 173 170 160 150 151 153 154 148 138 137 123 149